User: anonymous   Login
Location: Edoum�
(0.9447°N, 10.6482°E)
Time: 18:32:05
(UTC+00:00)
Language:

Genesis I - Orbit

View from above orbital plane
View from above orbital plane
View from above satellite
View from above satellite

Ground track
Ground track

The orbit data is extracted from the following two-line orbital elements,

1 29252U 06029A   21169.47748469  .00000581  00000-0  37397-4 0  9992
2 29252  64.5200 183.9536 0044271 316.4652  43.2980 15.18689472823672
Epoch (UTC): 18 June 2021 11:27:34
Eccentricity: 0.0044271
inclination: 64.5200°
perigee height: 479 km
apogee height: 540 km
right ascension of ascending node: 183.9536°
argument of perigee: 316.4652°
revolutions per day: 15.18689472
mean anomaly at epoch: 43.2980°
orbit number at epoch: 82367

The dashed part of the orbit path shows where the satellite is in the earth's shadow,  

DLR